FENGYUN 1C DEB, 30116

Orbit data source: Space-Track

FENGYUN 1C DEB, 30116 is space debris in SSO originally from a launch on Mon, 10 May 1999 UTC launched from the Taiyaun Space Center, China (TSC). Fengyun 1C debris stems from the Chinese weather satellite Fengyun-1C, which was intentionally destroyed by a Chinese anti-satellite missile in 2007. This event dramatically increased the amount of space debris, with thousands of trackable fragments posing hazards to satellites and human spaceflight. The Fengyun 1C debris cloud has become a focal point in discussions about space sustainability and the need for international regulations to prevent the creation of new debris.

Loading next visibility...
Identifier
30116, 1999-025RV
Orbit
SSO
Country
Flag of CNCN / PRC
Related business
Manufacturer
Unknown
Mission
Spacecraft
Bus & Motor
Unknown
Mass
Unknown
Launch date (UTC)
1999-05-10 (27 years ago)
Launch vehicle
Unknown
Launch site
Taiyaun Space Center, China (TSC)
Object type
Payload
Rocket body
Debris
Shape & HBR
Unknown shape, 0.1 m
Radar Cross Section
Medium (>0.1 m² and <1 m²)

Expand to show TLE details & history
Last TLE update: 9 hours ago

TLE from 9 hours ago
0 FENGYUN 1C DEB
1 30116U 99025RV  26208.18495426  .00003070  00000-0  11862-2 0  9993
2 30116  99.3899 301.9602 0020339  58.9956 327.3931 14.30854104  7409
Epoch: 2026-07-27T04:26Z
TLE epoch observation values (Epoch: 2026-07-27T04:26:20.048Z)
Latitude
25.9191°
Longitude
-74.08052°
Altitude
779.737 km
Speed
7.473 km/s
True Right ascension
19h 49m 30s
True Declination
25° 47' 04"
Sunlit
Object was in full shadow at epoch
Visualization orbit readout
Latitude
Unknown
Longitude
Unknown
Altitude
Unknown
Speed
Unknown
Apparent Right ascension
Unknown
Apparent Declination
Unknown
Sunlit
N/A
Visualization observer readout
Local Sidereal Time
03:00:20
Azimuth
Unknown
Elevation
Unknown
Doppler factor
Unknown
Orbital elements
Apogee altitude
800.627 km
Perigee altitude
771.484 km
Semi-major axis
7,164.192 km
Eccentricity
0.00203
Inclination
99.3899°
RAAN
301.9602°
Arg. of periapsis
58.9956°
True anomaly
327.26724°
Mean anomaly
327.3931°
Eccentric anomaly
327.3302°
Mean motion
3.57925 °/min
Orbital period
100.58 mins
BSTAR
0.0011862
Loading maneuver chart data...
Computing Atmospheric mass density...
Loading historical data...
Loading historical data...
Loading historical data...
Loading historical data...
Loading historical data...
Loading historical data...
Loading historical data...

Documentation

Showing up to 5 results
|